Waarnemingen

Advertentie
Mijn weer
Woensdrecht, Nederland (6340): temperatuur & dauwpunt: 14.08.2017 00:00:00 - 20.08.2017 00:00:00 (CEST)Woensdrecht, Nederland (6340): temperatuur 5cm: 14.08.2017 00:00:00 - 20.08.2017 00:00:00 (CEST)Woensdrecht, Nederland (6340): windsnelheid & windstoten: 14.08.2017 00:00:00 - 20.08.2017 00:00:00 (CEST)Woensdrecht, Nederland (6340): windrichting: 14.08.2017 00:00:00 - 20.08.2017 00:00:00 (CEST)Woensdrecht, Nederland (6340): luchtdruk: 14.08.2017 00:00:00 - 20.08.2017 00:00:00 (CEST)Woensdrecht, Nederland (6340): zicht: 14.08.2017 00:00:00 - 20.08.2017 00:00:00 (CEST)
Datum & Tijd tt [°C] td [°C] tt 5cm [°C] ff [km/u] ff [kn] fx [km/u] fx [kn] dd ppp [hPa] vv [km]
20.08.2017 00:00:00 15,4 12,2 14,8 16 9 29 16 ZW 1019,7 10
19.08.2017 23:00:00 15,9 11,8 15,3 16 9 32 18 ZW 1019,6 10
19.08.2017 22:00:00 15,9 10,8 15,1 11 6 32 18 ZW 1019,5 10
19.08.2017 21:00:00 16,8 11,2 16,4 21 11 43 23 WZW 1019,1 10
19.08.2017 20:00:00 17,9 11,3 17,7 22 12 32 18 W 1018,6 10
19.08.2017 19:00:00 18,1 10,8 18,0 22 12 36 19 W 1018,4 10
19.08.2017 18:00:00 18,6 10,6 18,5 24 13 43 23 W 1018,5 10
19.08.2017 17:00:00 19,2 9,9 20,4 29 16 40 21 W 1018,2 10
19.08.2017 16:00:00 19,5 11,9 20,3 31 17 43 23 W 1017,9 10
19.08.2017 15:00:00 18,6 11,9 19,5 22 12 40 21 W 1017,7 10
19.08.2017 14:00:00 18,0 12,1 18,2 24 13 43 23 W 1017,1 10
19.08.2017 13:00:00 17,7 13,2 18,6 28 15 43 23 WZW 1016,5 10
19.08.2017 12:00:00 17,3 12,0 17,3 28 15 43 23 WZW 1016,5 10
19.08.2017 11:00:00 17,7 11,8 18,1 28 15 40 21 W 1015,8 10
19.08.2017 10:00:00 15,5 13,0 15,7 21 11 32 18 WZW 1015,4 10
19.08.2017 09:00:00 14,4 12,2 14,6 22 12 36 19 ZW 1014,8 10
19.08.2017 08:00:00 13,9 11,6 13,8 21 11 32 18 ZW 1014,2 10
19.08.2017 07:00:00 13,2 10,8 12,7 21 11 36 19 ZW 1013,5 10
19.08.2017 06:00:00 13,4 10,5 13,0 22 12 40 21 ZW 1013,3 10
19.08.2017 05:00:00 13,7 10,7 13,2 21 11 36 19 ZZW 1012,9 10
19.08.2017 04:00:00 13,6 10,9 12,8 16 9 32 18 ZZW 1013,3 10
19.08.2017 03:00:00 13,7 10,9 13,1 16 9 29 16 ZW 1013,5 10
19.08.2017 02:00:00 13,9 10,7 13,3 18 10 29 16 ZW 1013,7 10
19.08.2017 01:00:00 14,2 10,8 13,4 16 9 32 18 ZW 1013,5 10
19.08.2017 00:00:00 14,3 11,2 13,5 13 7 25 14 ZW 1013,5 10
18.08.2017 23:00:00 14,2 11,3 12,7 11 6 18 10 WZW 1013,5 10
18.08.2017 22:00:00 14,3 11,1 13,6 16 9 40 21 W 1013,4 10
18.08.2017 21:00:00 16,8 10,2 16,1 22 12 50 27 WZW 1012,4 10
18.08.2017 20:00:00 18,5 10,9 18,2 26 14 47 25 ZW 1011,9 10
18.08.2017 19:00:00 19,0 10,8 18,6 34 18 50 27 WZW 1011,3 10
18.08.2017 18:00:00 21,6 14,2 22,3 22 12 32 18 WZW 1010,9 10
18.08.2017 17:00:00 20,4 14,3 20,3 16 9 32 18 WZW 1011,2 10
18.08.2017 16:00:00 20,3 14,5 21,0 21 11 32 18 WZW 1011,2 10
18.08.2017 15:00:00 19,1 15,0 19,5 15 8 32 18 WZW 1011,8 10
18.08.2017 14:00:00 19,1 14,5 19,6 24 13 36 19 WZW 1011,9 10
18.08.2017 13:00:00 18,6 16,5 18,8 13 7 25 14 WZW 1011,5 10
18.08.2017 12:00:00 16,4 15,7 16,7 15 8 29 16 WNW 1011,7 9
18.08.2017 11:00:00 18,8 17,4 19,2 9 5 18 10 Z 1011,9 10
18.08.2017 10:00:00 18,5 16,8 18,8 9 5 22 12 ZZW 1012,1 10
18.08.2017 09:00:00 18,4 15,6 18,2 11 6 25 14 ZZW 1012,3 10
18.08.2017 08:00:00 18,1 15,5 17,6 13 7 22 12 ZW 1012,8 10
18.08.2017 07:00:00 17,6 14,7 17,1 9 5 18 10 ZW 1012,4 10
18.08.2017 06:00:00 17,1 14,7 16,6 13 7 18 10 ZW 1012,8 10
18.08.2017 05:00:00 17,1 14,6 16,6 13 7 25 14 ZW 1012,9 10
18.08.2017 04:00:00 16,6 14,6 15,8 8 4 22 12 ZZW 1013,1 10
18.08.2017 03:00:00 16,6 14,3 15,9 11 6 22 12 ZZW 1013,2 10
18.08.2017 02:00:00 16,4 13,9 15,7 9 5 22 12 ZW 1014,0 10
18.08.2017 01:00:00 17,3 14,0 16,6 15 8 25 14 ZW 1014,2 10
18.08.2017 00:00:00 17,4 13,7 16,2 9 5 22 12 ZW 1014,0 10
17.08.2017 23:00:00 18,0 14,0 17,0 11 6 25 14 ZZW 1013,9 10
17.08.2017 22:00:00 18,7 14,7 17,8 13 7 25 14 ZW 1014,3 10
17.08.2017 21:00:00 20,0 17,0 19,4 16 9 29 16 ZW 1014,0 10
17.08.2017 20:00:00 21,0 17,4 20,8 13 7 32 18 ZZW 1013,5 10
17.08.2017 19:00:00 21,5 17,5 21,8 22 12 43 23 ZW 1013,5 10
17.08.2017 18:00:00 20,9 18,2 21,9 16 9 32 18 ZZW 1013,7 10
17.08.2017 17:00:00 19,9 17,8 19,7 15 8 36 19 ZZW 1014,0 10
17.08.2017 16:00:00 19,0 17,5 18,9 15 8 29 16 ZZW 1014,1 10
17.08.2017 15:00:00 18,5 17,3 18,5 15 8 29 16 ZZW 1014,3 10
17.08.2017 14:00:00 18,5 16,7 18,6 18 10 36 19 ZW 1014,1 10
17.08.2017 13:00:00 17,8 16,5 18,1 21 11 32 18 ZW 1014,2 10
17.08.2017 12:00:00 16,9 16,3 16,8 16 9 32 18 ZW 1014,3 10
17.08.2017 11:00:00 16,6 15,0 16,8 15 8 32 18 ZZW 1014,6 5
17.08.2017 10:00:00 18,2 14,9 18,2 11 6 22 12 Z 1014,5 10
17.08.2017 09:00:00 16,7 14,7 16,6 8 4 18 10 ZO 1014,3 10
17.08.2017 08:00:00 17,6 13,9 17,2 9 5 18 10 Z 1014,6 10
17.08.2017 07:00:00 17,2 12,9 16,7 5 3 18 10 Z 1014,6 10
17.08.2017 06:00:00 17,5 12,2 16,6 9 5 18 10 ZZO 1014,7 10
17.08.2017 05:00:00 17,0 12,7 15,8 9 5 14 8 ZZO 1015,4 10
17.08.2017 04:00:00 15,7 11,5 13,5 5 3 11 6 ZO 1016,5 10
17.08.2017 03:00:00 14,7 12,7 12,7 5 3 11 6 ZO 1016,9 10
17.08.2017 02:00:00 13,6 12,2 10,2 4 2 11 6 - 1017,5 10
17.08.2017 01:00:00 12,5 12,4 10,3 4 2 7 4 - 1018,2 10
17.08.2017 00:00:00 12,5 12,2 11,3 5 3 7 4 O 1018,7 10
16.08.2017 23:00:00 12,5 11,7 10,8 4 2 7 4 NW 1018,9 10
16.08.2017 22:00:00 14,9 14,2 12,3 2 1 4 2 - 1020,0 10
16.08.2017 21:00:00 17,6 14,6 16,1 2 1 7 4 NW 1019,9 10
16.08.2017 20:00:00 21,4 14,4 21,8 5 3 18 10 NW 1019,6 10
16.08.2017 19:00:00 21,3 12,5 20,9 16 9 25 14 WZW 1019,9 10
16.08.2017 18:00:00 22,8 13,8 23,2 13 7 22 12 WZW 1019,9 10
16.08.2017 17:00:00 22,6 12,7 23,7 13 7 22 12 WZW 1020,2 10
16.08.2017 16:00:00 21,8 11,6 22,3 15 8 22 12 WZW 1020,1 10
16.08.2017 15:00:00 23,0 12,1 24,2 9 5 22 12 ZZW 1020,6 10
16.08.2017 14:00:00 21,6 12,1 22,4 13 7 22 12 ZW 1021,0 10
16.08.2017 13:00:00 21,1 12,7 21,8 11 6 22 12 Z 1021,3 10
16.08.2017 12:00:00 21,1 12,3 22,8 13 7 29 16 Z 1021,3 10
16.08.2017 11:00:00 19,7 15,0 20,5 8 4 14 8 Z 1021,4 10
16.08.2017 10:00:00 17,9 15,3 18,8 9 5 18 10 Z 1021,5 10
16.08.2017 09:00:00 16,5 14,7 17,1 5 3 7 4 ZZO 1021,2 10
16.08.2017 08:00:00 13,9 13,9 13,3 2 1 7 4 Z 1020,9 8
16.08.2017 07:00:00 10,8 10,7 9,5 4 2 7 4 - 1020,6 7
16.08.2017 06:00:00 11,1 10,9 8,4 2 1 4 2 O 1020,3 4,0
16.08.2017 05:00:00 11,6 11,6 9,4 2 1 7 4 WZW 1020,0 10
16.08.2017 04:00:00 12,4 12,3 11,6 8 4 11 6 ZZW 1019,8 10
16.08.2017 03:00:00 12,5 12,5 11,5 4 2 7 4 - 1019,6 7
16.08.2017 02:00:00 12,8 12,6 10,7 2 1 4 2 ZW 1019,5 6
16.08.2017 01:00:00 13,3 13,2 11,2 0 0 4 2 N 1019,6 3,7
16.08.2017 00:00:00 14,9 14,6 12,5 2 1 7 4 - 1019,0 10
15.08.2017 23:00:00 16,8 15,8 14,8 4 2 18 10 W 1018,6 10
15.08.2017 22:00:00 17,8 16,0 17,3 15 8 22 12 W 1018,3 10
15.08.2017 21:00:00 18,7 16,8 18,4 15 8 25 14 W 1017,1 10
15.08.2017 20:00:00 20,0 16,8 19,9 13 7 25 14 W 1016,8 10
15.08.2017 19:00:00 19,8 17,2 19,9 13 7 25 14 WNW 1015,5 10
15.08.2017 18:00:00 19,8 17,2 20,1 18 10 32 18 WNW 1015,5 10
15.08.2017 17:00:00 20,3 16,6 20,7 11 6 22 12 NW 1014,9 10
15.08.2017 16:00:00 22,7 17,8 23,6 8 4 11 6 OZO 1014,2 10
15.08.2017 15:00:00 21,9 17,8 22,8 8 4 14 8 NO 1013,9 10
15.08.2017 14:00:00 21,5 17,7 22,9 11 6 14 8 NNO 1013,8 10
15.08.2017 13:00:00 19,5 17,7 19,8 16 9 29 16 - 1014,4 10
15.08.2017 12:00:00 18,5 17,8 18,1 8 4 18 10 NNO 1013,2 10
15.08.2017 11:00:00 17,0 16,3 17,0 11 6 14 8 O 1014,2 10
15.08.2017 10:00:00 16,2 15,3 16,0 5 3 29 16 WNW 1014,4 10
15.08.2017 09:00:00 16,3 14,6 15,8 2 1 7 4 - 1015,0 10
15.08.2017 08:00:00 15,7 13,5 15,4 4 2 7 4 - 1013,8 10
15.08.2017 07:00:00 13,4 12,2 11,7 4 2 7 4 - 1013,2 10
15.08.2017 06:00:00 15,4 12,3 11,6 5 3 11 6 ZZO 1013,8 10
15.08.2017 05:00:00 12,0 11,4 10,5 4 2 7 4 ZO 1014,5 10
15.08.2017 04:00:00 13,4 12,2 12,1 5 3 7 4 ZZO 1014,6 10
15.08.2017 03:00:00 14,0 13,3 12,7 4 2 7 4 O 1014,9 10
15.08.2017 02:00:00 13,6 13,2 11,0 4 2 7 4 ONO 1015,2 10
15.08.2017 01:00:00 13,8 12,6 11,4 4 2 7 4 ONO 1015,7 10
15.08.2017 00:00:00 14,3 13,0 12,2 4 2 4 2 NO 1015,8 10
14.08.2017 23:00:00 15,8 14,3 13,3 2 1 4 2 W 1016,1 10
14.08.2017 22:00:00 17,3 15,0 14,9 0 0 4 2 N 1016,5 10
14.08.2017 21:00:00 20,3 15,8 19,1 2 1 7 4 - 1016,1 10
14.08.2017 20:00:00 23,5 14,2 22,5 5 3 11 6 O 1016,0 10
14.08.2017 19:00:00 24,6 11,8 24,7 9 5 22 12 OZO 1016,2 10
14.08.2017 18:00:00 25,5 11,2 27,2 9 5 18 10 - 1016,4 10
14.08.2017 17:00:00 24,6 11,6 24,0 9 5 18 10 ZO 1016,9 10
14.08.2017 16:00:00 24,5 11,4 26,2 11 6 25 14 ZZW 1017,5 10
14.08.2017 15:00:00 24,5 11,8 27,0 13 7 29 16 Z 1018,0 10
14.08.2017 14:00:00 23,7 12,1 25,5 13 7 25 14 Z 1018,5 10
14.08.2017 13:00:00 23,0 12,2 23,9 11 6 25 14 - 1018,9 10
14.08.2017 12:00:00 22,5 13,3 24,8 15 8 29 16 O 1019,2 10
14.08.2017 11:00:00 21,6 13,8 23,4 11 6 22 12 OZO 1019,5 10
14.08.2017 10:00:00 18,7 14,4 19,2 8 4 14 8 O 1019,8 10
14.08.2017 09:00:00 16,4 13,4 17,0 9 5 14 8 O 1020,2 10
14.08.2017 08:00:00 14,4 12,7 13,9 8 4 11 6 O 1020,2 9
14.08.2017 07:00:00 12,9 12,3 12,3 8 4 11 6 O 1020,1 8
14.08.2017 06:00:00 10,2 9,8 8,9 4 2 7 4 ONO 1020,2 10
14.08.2017 05:00:00 10,6 10,1 8,3 4 2 7 4 OZO 1020,4 10
14.08.2017 04:00:00 10,8 9,9 8,3 8 4 11 6 O 1020,7 10
14.08.2017 03:00:00 11,4 11,0 8,8 4 2 4 2 ONO 1021,1 10
14.08.2017 02:00:00 12,3 11,8 9,5 4 2 7 4 ONO 1021,5 10
14.08.2017 01:00:00 12,8 12,1 10,3 2 1 4 2 O 1021,8 10
14.08.2017 00:00:00 14,3 13,2 12,5 2 1 4 2 - 1022,0 10

tt = temperatuur
td = dauwpunt
tt 5cm = temperatuur 5cm
ff = windsnelheid
fx = windstoten
dd = windrichting
ppp = luchtdruk
vv = zicht

Weerstations in de omgeving